Location: Ambrosina
(19.9365°S, 43.9833°W)
Time: 01:39:20
(UTC+00:00)

CZ-4 R/B - Pass Details

Date: 11 May 2021
Orbit: 530 x 597 km, 97.7° (Epoch: 20 June)

Event Time Altitude Azimuth Distance (km) Brightness Sun altitude
Exits shadow 21:16:16 11° 71° (ENE) 1,883 3.5 -11.5°
Drops below altitude 10° 21:16:41 10° 65° (ENE) 1,928 3.6 -11.6°
Sets 21:20:21 0° 31° (NNE) 2,807 4.8 -12.4°
